Back to Top

Language: 

My Weather Underground Personal Weather Station Historical Data with Graphs...

Delerius Weather Station Historical Data
Daily Summary for June 5, 2017 Units:  English    Metric   Both
« Previous Day
Next Day »
Daily Weekly Monthly Yearly Custom
  High: Low: Average:
Temperature: 59.0 °F 48.0 °F 53.8 °F
Dew Point: 56.8 °F 43.3 °F 50.4 °F
Humidity: 95 % 78 % 89 %
Wind Speed: 17.0 mph 0.0 mph 8 mph
Wind Gust: 33.0 mph - -
Wind:- - South
Pressure: 29.86 in 29.26 in -
Precipitation: 0.32 in    
Historical Graphs
 
 
Tabular Data for June 5, 2017
Time Temperature Dew Point Pressure Wind Wind Speed Wind Gust Humidity Rainfall Rate (Hourly) solar Conditions
00:01 50.2 °F 43.9 °F 29.86 in West 1.0 mph 4.0 mph 79 % 0.00 in 0 W/m2
00:06 50.2 °F 43.6 °F 29.86 in West 1.0 mph 5.0 mph 78 % 0.00 in 0 W/m2
00:11 50.2 °F 43.6 °F 29.86 in WSW 1.0 mph 5.0 mph 78 % 0.00 in 0 W/m2
00:16 50.2 °F 43.6 °F 29.86 in WSW 1.0 mph 3.0 mph 78 % 0.00 in 0 W/m2
00:21 50.4 °F 43.8 °F 29.86 in Calm   2.0 mph 78 % 0.00 in 0 W/m2
00:26 50.4 °F 43.8 °F 29.86 in Calm   2.0 mph 78 % 0.00 in 0 W/m2
00:31 50.4 °F 43.8 °F 29.86 in Calm   2.0 mph 78 % 0.00 in 0 W/m2
00:36 50.4 °F 43.8 °F 29.86 in Calm     78 % 0.00 in 0 W/m2
00:41 50.4 °F 43.8 °F 29.86 in Calm   2.0 mph 78 % 0.00 in 0 W/m2
00:46 50.4 °F 43.8 °F 29.85 in Calm   2.0 mph 78 % 0.00 in 0 W/m2
00:51 50.2 °F 43.6 °F 29.85 in Calm   1.0 mph 78 % 0.00 in 0 W/m2
00:56 50.2 °F 43.6 °F 29.85 in Calm   2.0 mph 78 % 0.00 in 0 W/m2
01:01 50.2 °F 43.6 °F 29.85 in Calm   2.0 mph 78 % 0.00 in 0 W/m2
01:06 50.0 °F 43.4 °F 29.85 in Calm   2.0 mph 78 % 0.00 in 0 W/m2
01:11 50.0 °F 43.7 °F 29.85 in Calm   2.0 mph 79 % 0.00 in 0 W/m2
01:16 49.8 °F 43.6 °F 29.85 in Calm   4.0 mph 79 % 0.00 in 0 W/m2
01:21 49.8 °F 43.6 °F 29.85 in Calm   4.0 mph 79 % 0.00 in 0 W/m2
01:26 49.6 °F 43.7 °F 29.85 in Calm     80 % 0.00 in 0 W/m2
01:31 49.5 °F 43.5 °F 29.84 in Calm     80 % 0.00 in 0 W/m2
01:36 49.3 °F 43.4 °F 29.84 in Calm     80 % 0.00 in 0 W/m2
01:41 49.3 °F 43.7 °F 29.84 in Calm   2.0 mph 81 % 0.00 in 0 W/m2
01:46 49.1 °F 43.5 °F 29.84 in Calm   2.0 mph 81 % 0.00 in 0 W/m2
01:51 49.1 °F 43.8 °F 29.84 in Calm   2.0 mph 82 % 0.00 in 0 W/m2
01:56 49.3 °F 44.3 °F 29.84 in Calm   1.0 mph 83 % 0.00 in 0 W/m2
02:01 49.1 °F 44.2 °F 29.83 in Calm   1.0 mph 83 % 0.00 in 0 W/m2
02:06 48.9 °F 44.0 °F 29.83 in Calm   2.0 mph 83 % 0.00 in 0 W/m2
02:12 48.7 °F 43.8 °F 29.83 in WSW 1.0 mph 2.0 mph 83 % 0.00 in 0 W/m2
02:17 48.6 °F 43.6 °F 29.83 in Calm   2.0 mph 83 % 0.00 in 0 W/m2
02:22 48.6 °F 43.6 °F 29.82 in Calm   1.0 mph 83 % 0.00 in 0 W/m2
02:27 48.4 °F 43.5 °F 29.82 in Calm   2.0 mph 83 % 0.00 in 0 W/m2
02:32 48.4 °F 43.5 °F 29.82 in Calm   2.0 mph 83 % 0.00 in 0 W/m2
02:37 48.4 °F 43.5 °F 29.82 in Calm   1.0 mph 83 % 0.00 in 0 W/m2
02:42 48.2 °F 43.3 °F 29.82 in Calm   1.0 mph 83 % 0.00 in 0 W/m2
02:47 48.0 °F 43.4 °F 29.82 in Calm   2.0 mph 84 % 0.00 in 0 W/m2
02:52 48.0 °F 43.7 °F 29.82 in SSE 2.0 mph 6.0 mph 85 % 0.00 in 0 W/m2
02:57 48.2 °F 43.9 °F 29.81 in SSE 3.0 mph 6.0 mph 85 % 0.00 in 0 W/m2
03:02 48.6 °F 44.3 °F 29.81 in SE 2.0 mph 6.0 mph 85 % 0.00 in 0 W/m2
03:07 48.9 °F 44.3 °F 29.81 in South 2.0 mph 7.0 mph 84 % 0.00 in 0 W/m2
03:12 49.1 °F 44.2 °F 29.81 in South 1.0 mph 7.0 mph 83 % 0.00 in 0 W/m2
03:17 49.1 °F 44.2 °F 29.81 in Calm   1.0 mph 83 % 0.00 in 0 W/m2
03:22 48.9 °F 44.0 °F 29.81 in Calm   5.0 mph 83 % 0.00 in 0 W/m2
03:27 49.1 °F 44.2 °F 29.81 in SSE 1.0 mph 7.0 mph 83 % 0.00 in 0 W/m2
03:32 49.3 °F 44.3 °F 29.81 in SSE 2.0 mph 8.0 mph 83 % 0.00 in 0 W/m2
03:37 49.5 °F 44.5 °F 29.80 in SSE 2.0 mph 8.0 mph 83 % 0.00 in 0 W/m2
03:42 49.5 °F 44.5 °F 29.80 in SSE 2.0 mph 7.0 mph 83 % 0.00 in 0 W/m2
03:47 49.5 °F 44.5 °F 29.80 in SSE 2.0 mph 7.0 mph 83 % 0.00 in 0 W/m2
03:52 49.5 °F 44.5 °F 29.79 in SSE 2.0 mph 6.0 mph 83 % 0.00 in 0 W/m2
03:57 49.5 °F 44.5 °F 29.79 in SSE 3.0 mph 7.0 mph 83 % 0.00 in 0 W/m2
04:02 49.5 °F 44.5 °F 29.79 in SSE 2.0 mph 7.0 mph 83 % 0.00 in 0 W/m2
04:07 49.3 °F 44.3 °F 29.79 in South 1.0 mph 6.0 mph 83 % 0.00 in 0 W/m2
04:15 49.3 °F 44.6 °F 29.79 in SSE 3.0 mph 7.0 mph 84 % 0.00 in 0 W/m2
04:20 49.3 °F 44.3 °F 29.78 in SSE 2.0 mph 6.0 mph 83 % 0.00 in 0 W/m2
04:25 49.1 °F 44.5 °F 29.78 in SE 1.0 mph 6.0 mph 84 % 0.00 in 0 W/m2
04:30 49.1 °F 44.5 °F 29.78 in SE 3.0 mph 6.0 mph 84 % 0.00 in 0 W/m2
04:35 48.9 °F 44.3 °F 29.78 in SE 4.0 mph 7.0 mph 84 % 0.00 in 0 W/m2
04:40 48.9 °F 44.3 °F 29.78 in SSE 4.0 mph 7.0 mph 84 % 0.00 in 0 W/m2
04:45 48.9 °F 44.3 °F 29.77 in SSE 4.0 mph 8.0 mph 84 % 0.00 in 5 W/m2
04:50 48.9 °F 44.3 °F 29.77 in SE 3.0 mph 8.0 mph 84 % 0.00 in 7 W/m2
04:55 48.9 °F 44.3 °F 29.76 in ESE 3.0 mph 7.0 mph 84 % 0.00 in 9 W/m2
05:00 48.9 °F 44.3 °F 29.76 in ESE 3.0 mph 7.0 mph 84 % 0.00 in 12 W/m2
05:05 48.9 °F 44.6 °F 29.76 in ESE 2.0 mph 7.0 mph 85 % 0.00 in 16 W/m2
05:10 48.9 °F 44.6 °F 29.75 in East 2.0 mph 6.0 mph 85 % 0.00 in 16 W/m2
05:11 48.9 °F 44.6 °F 29.75 in East 2.0 mph 6.0 mph 85 % 0.00 in 16 W/m2
05:16 48.7 °F 44.4 °F 29.75 in East 2.0 mph 7.0 mph 85 % 0.00 in 14 W/m2
05:21 48.7 °F 44.4 °F 29.75 in East 2.0 mph 7.0 mph 85 % 0.00 in 14 W/m2
05:26 48.6 °F 44.3 °F 29.75 in ENE 2.0 mph 6.0 mph 85 % 0.00 in 14 W/m2
05:31 48.6 °F 44.6 °F 29.75 in East 2.0 mph 6.0 mph 86 % 0.00 in 16 W/m2
05:36 48.6 °F 44.6 °F 29.75 in SE 2.0 mph 7.0 mph 86 % 0.00 in 21 W/m2
05:41 48.6 °F 44.6 °F 29.75 in SE 4.0 mph 10.0 mph 86 % 0.00 in 35 W/m2
05:43 48.6 °F 44.6 °F 29.75 in SE 5.0 mph 10.0 mph 86 % 0.00 in 42 W/m2
05:48 48.7 °F 44.7 °F 29.74 in SE 4.0 mph 10.0 mph 86 % 0.00 in 56 W/m2
05:53 48.9 °F 44.9 °F 29.74 in SSE 4.0 mph 9.0 mph 86 % 0.00 in 88 W/m2
05:59 48.9 °F 44.9 °F 29.73 in SSE 6.0 mph 13.0 mph 86 % 0.00 in 134 W/m2
06:04 49.3 °F 45.3 °F 29.73 in SSE 7.0 mph 14.0 mph 86 % 0.00 in 172 W/m2
06:09 49.6 °F 45.6 °F 29.73 in SSE 7.0 mph 14.0 mph 86 % 0.00 in 125 W/m2
06:14 49.8 °F 45.5 °F 29.73 in SSE 7.0 mph 15.0 mph 85 % 0.00 in 100 W/m2
06:19 50.2 °F 45.8 °F 29.73 in SSE 7.0 mph 15.0 mph 85 % 0.00 in 81 W/m2
06:24 50.0 °F 45.7 °F 29.73 in SSE 7.0 mph 14.0 mph 85 % 0.00 in 72 W/m2
06:29 49.8 °F 45.5 °F 29.72 in SSE 7.0 mph 15.0 mph 85 % 0.00 in 69 W/m2
06:34 50.0 °F 45.7 °F 29.72 in SSE 8.0 mph 15.0 mph 85 % 0.00 in 79 W/m2
06:39 50.0 °F 45.7 °F 29.72 in SSE 8.0 mph 12.0 mph 85 % 0.00 in 88 W/m2
06:44 50.2 °F 45.8 °F 29.72 in SSE 8.0 mph 14.0 mph 85 % 0.00 in 90 W/m2
06:49 50.2 °F 46.2 °F 29.72 in SSE 9.0 mph 14.0 mph 86 % 0.00 in 88 W/m2
06:54 50.4 °F 46.3 °F 29.72 in South 8.0 mph 14.0 mph 86 % 0.00 in 91 W/m2
06:59 50.5 °F 46.2 °F 29.72 in South 8.0 mph 16.0 mph 85 % 0.00 in 95 W/m2
07:04 50.7 °F 46.7 °F 29.71 in South 8.0 mph 16.0 mph 86 % 0.00 in 95 W/m2
07:09 51.1 °F 47.0 °F 29.71 in SSE 8.0 mph 14.0 mph 86 % 0.00 in 95 W/m2
07:14 51.3 °F 46.9 °F 29.71 in SSE 8.0 mph 15.0 mph 85 % 0.00 in 111 W/m2
07:19 51.4 °F 47.1 °F 29.70 in SSE 8.0 mph 16.0 mph 85 % 0.00 in 116 W/m2
07:24 51.4 °F 47.1 °F 29.70 in SSE 9.0 mph 16.0 mph 85 % 0.00 in 107 W/m2
07:29 51.6 °F 47.3 °F 29.70 in SSE 8.0 mph 16.0 mph 85 % 0.00 in 113 W/m2
07:34 52.0 °F 47.6 °F 29.70 in SSE 8.0 mph 14.0 mph 85 % 0.00 in 102 W/m2
07:39 52.2 °F 47.8 °F 29.70 in SSE 8.0 mph 14.0 mph 85 % 0.00 in 113 W/m2
07:44 52.3 °F 48.0 °F 29.70 in SSE 7.0 mph 14.0 mph 85 % 0.00 in 125 W/m2
07:49 52.5 °F 47.8 °F 29.69 in SSE 7.0 mph 14.0 mph 84 % 0.00 in 93 W/m2
07:54 52.7 °F 48.0 °F 29.69 in SSE 7.0 mph 16.0 mph 84 % 0.00 in 102 W/m2
07:59 52.9 °F 48.2 °F 29.69 in SSE 8.0 mph 16.0 mph 84 % 0.00 in 95 W/m2
08:04 53.1 °F 48.4 °F 29.69 in SSE 8.0 mph 19.0 mph 84 % 0.00 in 121 W/m2
08:09 53.2 °F 48.2 °F 29.69 in South 9.0 mph 19.0 mph 83 % 0.00 in 128 W/m2
08:14 53.4 °F 48.4 °F 29.69 in South 8.0 mph 13.0 mph 83 % 0.00 in 111 W/m2
08:19 53.6 °F 48.6 °F 29.68 in SSW 8.0 mph 23.0 mph 83 % 0.00 in 93 W/m2
08:24 53.6 °F 48.9 °F 29.68 in SSW 10.0 mph 23.0 mph 84 % 0.00 in 62 W/m2
08:29 53.2 °F 48.8 °F 29.68 in SSW 11.0 mph 23.0 mph 85 % 0.00 in 69 W/m2
08:35 53.1 °F 49.0 °F 29.68 in SSW 12.0 mph 23.0 mph 86 % 0.01 in 95 W/m2
08:40 52.9 °F 49.1 °F 29.67 in SSW 11.0 mph 23.0 mph 87 % 0.01 in 95 W/m2
08:45 52.7 °F 49.2 °F 29.67 in SSW 10.0 mph 20.0 mph 88 % 0.01 in 91 W/m2
08:50 52.5 °F 49.4 °F 29.67 in SSW 12.0 mph 22.0 mph 89 % 0.01 in 120 W/m2
08:55 52.5 °F 49.7 °F 29.67 in SSW 10.0 mph 22.0 mph 90 % 0.02 in 128 W/m2
09:00 52.5 °F 49.7 °F 29.66 in SSW 9.0 mph 18.0 mph 90 % 0.02 in 149 W/m2
09:05 52.9 °F 50.3 °F 29.66 in SSW 9.0 mph 15.0 mph 91 % 0.02 in 172 W/m2
09:10 52.9 °F 50.3 °F 29.66 in SSW 9.0 mph 21.0 mph 91 % 0.02 in 174 W/m2
09:15 53.1 °F 50.5 °F 29.66 in SSW 10.0 mph 21.0 mph 91 % 0.02 in 185 W/m2
09:20 53.2 °F 50.7 °F 29.65 in South 10.0 mph 21.0 mph 91 % 0.02 in 144 W/m2
09:25 53.4 °F 50.9 °F 29.65 in South 11.0 mph 22.0 mph 91 % 0.02 in 195 W/m2
09:30 53.6 °F 51.0 °F 29.65 in SSW 12.0 mph 28.0 mph 91 % 0.01 in 229 W/m2
09:35 53.8 °F 51.2 °F 29.64 in SSW 12.0 mph 28.0 mph 91 % 0.01 in 221 W/m2
09:40 54.0 °F 51.4 °F 29.64 in SSW 13.0 mph 23.0 mph 91 % 0.01 in 214 W/m2
09:45 54.1 °F 51.6 °F 29.64 in South 12.0 mph 26.0 mph 91 % 0.01 in 223 W/m2
09:50 54.3 °F 51.7 °F 29.64 in South 13.0 mph 26.0 mph 91 % 0.01 in 244 W/m2
09:55 54.3 °F 51.4 °F 29.64 in SSW 13.0 mph 26.0 mph 90 % 0.00 in 244 W/m2
10:00 54.5 °F 51.9 °F 29.64 in SSW 14.0 mph 28.0 mph 91 % 0.00 in 274 W/m2
10:05 54.7 °F 52.1 °F 29.64 in SSW 14.0 mph 29.0 mph 91 % 0.00 in 274 W/m2
10:10 54.7 °F 52.1 °F 29.64 in SSW 14.0 mph 29.0 mph 91 % 0.00 in 188 W/m2
10:15 54.9 °F 52.3 °F 29.64 in SSW 14.0 mph 26.0 mph 91 % 0.00 in 260 W/m2
10:20 54.9 °F 52.0 °F 29.64 in SSW 14.0 mph 27.0 mph 90 % 0.00 in 158 W/m2
10:25 54.9 °F 52.0 °F 29.64 in SSW 14.0 mph 27.0 mph 90 % 0.01 in 125 W/m2
10:30 54.9 °F 52.3 °F 29.63 in SSW 14.0 mph 24.0 mph 91 % 0.01 in 214 W/m2
10:35 54.9 °F 52.6 °F 29.63 in SSW 13.0 mph 24.0 mph 92 % 0.02 in 149 W/m2
10:40 54.9 °F 52.3 °F 29.63 in SSW 12.0 mph 25.0 mph 91 % 0.02 in 134 W/m2
10:45 54.9 °F 52.6 °F 29.63 in SSW 13.0 mph 25.0 mph 92 % 0.02 in 105 W/m2
10:50 54.9 °F 52.3 °F 29.63 in SSW 12.0 mph 24.0 mph 91 % 0.02 in 130 W/m2
10:55 54.9 °F 52.6 °F 29.62 in SSW 11.0 mph 20.0 mph 92 % 0.02 in 167 W/m2
11:00 54.9 °F 52.6 °F 29.62 in SSW 10.0 mph 20.0 mph 92 % 0.02 in 162 W/m2
11:05 54.9 °F 52.6 °F 29.62 in SSW 10.0 mph 20.0 mph 92 % 0.03 in 158 W/m2
11:10 55.0 °F 52.8 °F 29.62 in SSW 11.0 mph 20.0 mph 92 % 0.03 in 230 W/m2
11:15 55.2 °F 53.2 °F 29.61 in SSW 11.0 mph 21.0 mph 93 % 0.04 in 243 W/m2
11:20 55.2 °F 53.2 °F 29.61 in SSW 11.0 mph 21.0 mph 93 % 0.04 in 241 W/m2
11:25 55.4 °F 53.4 °F 29.61 in South 11.0 mph 21.0 mph 93 % 0.04 in 218 W/m2
11:30 55.6 °F 53.3 °F 29.61 in South 10.0 mph 22.0 mph 92 % 0.04 in 206 W/m2
11:35 55.6 °F 53.6 °F 29.60 in South 11.0 mph 22.0 mph 93 % 0.04 in 216 W/m2
11:40 55.8 °F 53.8 °F 29.60 in SSW 10.0 mph 22.0 mph 93 % 0.04 in 234 W/m2
11:45 55.9 °F 53.9 °F 29.60 in SSW 10.0 mph 22.0 mph 93 % 0.04 in 262 W/m2
11:50 55.9 °F 53.9 °F 29.60 in South 9.0 mph 18.0 mph 93 % 0.04 in 264 W/m2
11:55 56.1 °F 54.1 °F 29.59 in SSW 10.0 mph 18.0 mph 93 % 0.04 in 292 W/m2
12:00 56.1 °F 54.1 °F 29.59 in South 11.0 mph 24.0 mph 93 % 0.04 in 285 W/m2
12:05 56.1 °F 54.1 °F 29.59 in South 12.0 mph 24.0 mph 93 % 0.04 in 239 W/m2
12:10 56.3 °F 54.3 °F 29.59 in South 11.0 mph 20.0 mph 93 % 0.04 in 265 W/m2
12:15 56.5 °F 54.5 °F 29.58 in South 9.0 mph 18.0 mph 93 % 0.04 in 250 W/m2
12:20 56.5 °F 54.5 °F 29.58 in SSW 10.0 mph 23.0 mph 93 % 0.04 in 218 W/m2
12:25 56.5 °F 54.5 °F 29.58 in South 11.0 mph 23.0 mph 93 % 0.03 in 200 W/m2
12:31 56.7 °F 54.7 °F 29.58 in South 11.0 mph 19.0 mph 93 % 0.04 in 206 W/m2
12:36 56.7 °F 54.7 °F 29.58 in SSW 11.0 mph 19.0 mph 93 % 0.03 in 174 W/m2
12:41 56.5 °F 54.5 °F 29.58 in SSW 11.0 mph 19.0 mph 93 % 0.05 in 186 W/m2
12:46 56.5 °F 54.5 °F 29.58 in SSW 10.0 mph 19.0 mph 93 % 0.05 in 132 W/m2
12:51 56.7 °F 54.7 °F 29.58 in SW 7.0 mph 18.0 mph 93 % 0.06 in 130 W/m2
12:56 56.7 °F 54.7 °F 29.58 in SW 7.0 mph 15.0 mph 93 % 0.10 in 132 W/m2
13:01 56.5 °F 54.8 °F 29.58 in SW 8.0 mph 15.0 mph 94 % 0.12 in 246 W/m2
13:06 56.8 °F 55.1 °F 29.58 in SW 7.0 mph 13.0 mph 94 % 0.12 in 308 W/m2
13:11 56.8 °F 55.1 °F 29.58 in SW 7.0 mph 14.0 mph 94 % 0.12 in 339 W/m2
13:16 57.0 °F 55.6 °F 29.57 in SW 7.0 mph 14.0 mph 95 % 0.11 in 406 W/m2
13:21 57.4 °F 55.7 °F 29.57 in SW 7.0 mph 11.0 mph 94 % 0.11 in 367 W/m2
13:26 57.6 °F 55.8 °F 29.57 in SW 7.0 mph 12.0 mph 94 % 0.11 in 366 W/m2
13:31 57.7 °F 56.0 °F 29.57 in SW 8.0 mph 14.0 mph 94 % 0.10 in 434 W/m2
13:36 58.1 °F 56.4 °F 29.57 in SW 9.0 mph 15.0 mph 94 % 0.10 in 531 W/m2
13:41 58.3 °F 56.3 °F 29.56 in SW 10.0 mph 19.0 mph 93 % 0.09 in 461 W/m2
13:46 58.6 °F 56.3 °F 29.56 in SSW 11.0 mph 22.0 mph 92 % 0.08 in 417 W/m2
13:51 58.6 °F 55.7 °F 29.56 in SW 12.0 mph 22.0 mph 90 % 0.06 in 418 W/m2
13:56 58.8 °F 55.6 °F 29.56 in SW 13.0 mph 21.0 mph 89 % 0.02 in 294 W/m2
14:01 59.0 °F 56.1 °F 29.56 in SW 11.0 mph 20.0 mph 90 % 0.00 in 316 W/m2
14:06 59.0 °F 55.8 °F 29.56 in SW 11.0 mph 22.0 mph 89 % 0.01 in 431 W/m2
14:12 58.8 °F 55.9 °F 29.55 in SSW 11.0 mph 22.0 mph 90 % 0.01 in 316 W/m2
14:17 59.0 °F 56.4 °F 29.55 in SSW 9.0 mph 16.0 mph 91 % 0.01 in 279 W/m2
14:22 59.0 °F 56.4 °F 29.55 in SSW 8.0 mph 15.0 mph 91 % 0.01 in 243 W/m2
14:27 58.8 °F 56.2 °F 29.55 in SSW 8.0 mph 14.0 mph 91 % 0.02 in 262 W/m2
14:32 58.6 °F 56.0 °F 29.54 in SSW 7.0 mph 14.0 mph 91 % 0.02 in 295 W/m2
14:37 58.8 °F 56.8 °F 29.54 in South 6.0 mph 11.0 mph 93 % 0.02 in 297 W/m2
14:42 58.8 °F 56.5 °F 29.54 in South 6.0 mph 13.0 mph 92 % 0.02 in 417 W/m2
14:48 58.8 °F 56.5 °F 29.54 in SSW 7.0 mph 14.0 mph 92 % 0.02 in 274 W/m2
14:50 58.8 °F 56.8 °F 29.54 in SSW 8.0 mph 14.0 mph 93 % 0.02 in 174 W/m2
14:55 58.8 °F 56.5 °F 29.53 in South 8.0 mph 14.0 mph 92 % 0.03 in 213 W/m2
15:00 58.6 °F 56.6 °F 29.53 in South 7.0 mph 14.0 mph 93 % 0.03 in 104 W/m2
15:05 58.3 °F 56.0 °F 29.53 in SSW 9.0 mph 21.0 mph 92 % 0.03 in 216 W/m2
15:10 58.3 °F 56.3 °F 29.53 in SSW 11.0 mph 21.0 mph 93 % 0.03 in 204 W/m2
15:15 58.3 °F 56.3 °F 29.52 in SSW 9.0 mph 19.0 mph 93 % 0.03 in 251 W/m2
15:20 58.3 °F 56.3 °F 29.52 in SSW 9.0 mph 20.0 mph 93 % 0.03 in 278 W/m2
15:25 58.3 °F 56.3 °F 29.52 in SSW 10.0 mph 20.0 mph 93 % 0.02 in 181 W/m2
15:30 58.5 °F 56.4 °F 29.52 in SSW 10.0 mph 16.0 mph 93 % 0.02 in 125 W/m2
15:35 58.5 °F 56.4 °F 29.51 in SSW 10.0 mph 18.0 mph 93 % 0.02 in 232 W/m2
15:40 58.3 °F 56.0 °F 29.51 in SSW 12.0 mph 26.0 mph 92 % 0.02 in 255 W/m2
15:45 58.3 °F 56.0 °F 29.51 in SSW 14.0 mph 27.0 mph 92 % 0.02 in 281 W/m2
15:50 57.9 °F 55.6 °F 29.51 in SSW 16.0 mph 30.0 mph 92 % 0.02 in 371 W/m2
15:55 57.9 °F 55.6 °F 29.51 in SSW 17.0 mph 30.0 mph 92 % 0.01 in 287 W/m2
16:00 57.7 °F 55.4 °F 29.51 in SSW 16.0 mph 27.0 mph 92 % 0.02 in 281 W/m2
16:05 57.6 °F 55.3 °F 29.51 in SSW 16.0 mph 33.0 mph 92 % 0.01 in 316 W/m2
16:10 57.9 °F 55.6 °F 29.51 in SSW 15.0 mph 33.0 mph 92 % 0.01 in 429 W/m2
16:13 57.9 °F 55.3 °F 29.51 in SSW 14.0 mph 32.0 mph 91 % 0.01 in 343 W/m2
16:18 58.3 °F 55.7 °F 29.51 in SSW 14.0 mph 32.0 mph 91 % 0.01 in 306 W/m2
16:23 58.3 °F 55.4 °F 29.51 in SSW 13.0 mph 26.0 mph 90 % 0.01 in 279 W/m2
16:28 58.1 °F 54.9 °F 29.50 in SSW 15.0 mph 29.0 mph 89 % 0.01 in 260 W/m2
16:33 58.1 °F 54.9 °F 29.50 in SSW 14.0 mph 29.0 mph 89 % 0.01 in 100 W/m2
16:38 57.9 °F 54.7 °F 29.50 in SSW 14.0 mph 28.0 mph 89 % 0.01 in 86 W/m2
16:43 57.9 °F 55.0 °F 29.50 in SSW 13.0 mph 28.0 mph 90 % 0.01 in 155 W/m2
16:48 57.7 °F 54.5 °F 29.50 in SSW 12.0 mph 26.0 mph 89 % 0.01 in 237 W/m2
16:53 57.7 °F 54.8 °F 29.50 in SSW 12.0 mph 26.0 mph 90 % 0.01 in 278 W/m2
16:58 57.9 °F 55.0 °F 29.49 in SSW 11.0 mph 21.0 mph 90 % 0.01 in 243 W/m2
17:03 58.1 °F 54.9 °F 29.49 in SSW 11.0 mph 23.0 mph 89 % 0.00 in 188 W/m2
17:09 58.1 °F 54.6 °F 29.49 in SSW 13.0 mph 24.0 mph 88 % 0.00 in 111 W/m2
17:14 58.3 °F 54.4 °F 29.49 in SSW 12.0 mph 24.0 mph 87 % 0.00 in 109 W/m2
17:19 58.3 °F 54.7 °F 29.49 in SSW 10.0 mph 21.0 mph 88 % 0.00 in 90 W/m2
17:24 57.9 °F 54.1 °F 29.48 in SSW 10.0 mph 19.0 mph 87 % 0.00 in 120 W/m2
17:29 57.9 °F 54.4 °F 29.48 in SSW 10.0 mph 19.0 mph 88 % 0.00 in 84 W/m2
17:34 57.9 °F 54.4 °F 29.48 in South 9.0 mph 18.0 mph 88 % 0.00 in 58 W/m2
17:39 57.7 °F 53.6 °F 29.48 in SSW 10.0 mph 28.0 mph 86 % 0.00 in 100 W/m2
17:44 57.7 °F 53.6 °F 29.48 in SSW 12.0 mph 28.0 mph 86 % 0.00 in 137 W/m2
17:49 57.7 °F 53.6 °F 29.47 in SSW 12.0 mph 22.0 mph 86 % 0.00 in 202 W/m2
17:54 57.7 °F 53.6 °F 29.47 in SSW 11.0 mph 22.0 mph 86 % 0.00 in 167 W/m2
17:59 57.7 °F 53.9 °F 29.47 in SSW 10.0 mph 22.0 mph 87 % 0.00 in 123 W/m2
18:04 57.6 °F 53.4 °F 29.47 in SSW 11.0 mph 21.0 mph 86 % 0.00 in 121 W/m2
18:09 57.6 °F 53.4 °F 29.46 in SSW 11.0 mph 20.0 mph 86 % 0.00 in 113 W/m2
18:14 57.4 °F 53.2 °F 29.46 in SSW 10.0 mph 19.0 mph 86 % 0.00 in 98 W/m2
18:19 57.4 °F 53.2 °F 29.46 in South 8.0 mph 18.0 mph 86 % 0.00 in 98 W/m2
18:24 57.4 °F 53.2 °F 29.45 in South 8.0 mph 18.0 mph 86 % 0.00 in 98 W/m2
18:29 57.4 °F 52.9 °F 29.45 in South 10.0 mph 21.0 mph 85 % 0.00 in 105 W/m2
18:34 57.4 °F 52.9 °F 29.45 in South 11.0 mph 21.0 mph 85 % 0.00 in 116 W/m2
18:39 57.4 °F 52.9 °F 29.45 in South 10.0 mph 20.0 mph 85 % 0.00 in 97 W/m2
18:44 57.2 °F 53.0 °F 29.45 in South 11.0 mph 24.0 mph 86 % 0.00 in 72 W/m2
18:49 56.8 °F 53.0 °F 29.44 in South 10.0 mph 24.0 mph 87 % 0.01 in 47 W/m2
18:54 56.7 °F 52.8 °F 29.44 in South 10.0 mph 22.0 mph 87 % 0.02 in 35 W/m2
18:59 56.1 °F 52.6 °F 29.44 in South 11.0 mph 26.0 mph 88 % 0.02 in 26 W/m2
19:04 55.9 °F 52.7 °F 29.43 in South 12.0 mph 26.0 mph 89 % 0.02 in 28 W/m2
19:09 55.8 °F 52.9 °F 29.43 in South 10.0 mph 25.0 mph 90 % 0.02 in 39 W/m2
19:14 55.6 °F 52.7 °F 29.42 in South 8.0 mph 14.0 mph 90 % 0.03 in 40 W/m2
19:19 55.2 °F 52.6 °F 29.42 in SSE 9.0 mph 19.0 mph 91 % 0.03 in 42 W/m2
19:24 55.0 °F 52.5 °F 29.42 in SSE 11.0 mph 23.0 mph 91 % 0.03 in 44 W/m2
19:29 55.0 °F 52.5 °F 29.42 in SSE 10.0 mph 23.0 mph 91 % 0.03 in 49 W/m2
19:34 54.9 °F 52.3 °F 29.41 in SSE 10.0 mph 19.0 mph 91 % 0.03 in 46 W/m2
19:39 54.9 °F 52.6 °F 29.41 in SSE 10.0 mph 19.0 mph 92 % 0.03 in 42 W/m2
19:44 54.7 °F 52.1 °F 29.40 in SSE 12.0 mph 25.0 mph 91 % 0.03 in 32 W/m2
19:49 54.7 °F 52.1 °F 29.40 in SSE 13.0 mph 25.0 mph 91 % 0.02 in 25 W/m2
19:54 54.7 °F 52.4 °F 29.40 in SSE 12.0 mph 26.0 mph 92 % 0.02 in 23 W/m2
20:00 54.7 °F 52.4 °F 29.40 in SSE 11.0 mph 26.0 mph 92 % 0.02 in 19 W/m2
20:05 54.7 °F 52.4 °F 29.40 in SSE 10.0 mph 18.0 mph 92 % 0.02 in 18 W/m2
20:10 54.5 °F 52.5 °F 29.40 in SSE 10.0 mph 19.0 mph 93 % 0.01 in 16 W/m2
20:15 54.3 °F 52.3 °F 29.40 in SSE 9.0 mph 19.0 mph 93 % 0.02 in 16 W/m2
20:20 54.3 °F 52.3 °F 29.39 in SSE 9.0 mph 14.0 mph 93 % 0.02 in 12 W/m2
20:25 54.3 °F 52.3 °F 29.39 in SSE 9.0 mph 14.0 mph 93 % 0.02 in 11 W/m2
20:30 54.3 °F 52.6 °F 29.39 in SSE 8.0 mph 15.0 mph 94 % 0.02 in 7 W/m2
20:35 54.1 °F 52.5 °F 29.39 in SSE 8.0 mph 15.0 mph 94 % 0.02 in 7 W/m2
20:40 54.1 °F 52.5 °F 29.38 in SE 9.0 mph 15.0 mph 94 % 0.02 in 5 W/m2
20:45 54.3 °F 52.6 °F 29.38 in SSE 9.0 mph 16.0 mph 94 % 0.02 in 5 W/m2
20:50 54.3 °F 52.6 °F 29.37 in SSE 9.0 mph 16.0 mph 94 % 0.02 in 5 W/m2
20:55 54.3 °F 52.6 °F 29.37 in SSE 10.0 mph 20.0 mph 94 % 0.02 in 0 W/m2
21:00 54.3 °F 52.6 °F 29.37 in SSE 11.0 mph 20.0 mph 94 % 0.02 in 0 W/m2
21:05 54.1 °F 52.5 °F 29.37 in SE 11.0 mph 19.0 mph 94 % 0.01 in 0 W/m2
21:10 54.1 °F 52.5 °F 29.36 in SSE 10.0 mph 19.0 mph 94 % 0.01 in 0 W/m2
21:15 54.1 °F 52.5 °F 29.36 in SSE 10.0 mph 19.0 mph 94 % 0.01 in 0 W/m2
21:20 54.1 °F 52.5 °F 29.36 in SSE 11.0 mph 20.0 mph 94 % 0.01 in 0 W/m2
21:25 54.1 °F 52.5 °F 29.36 in SSE 11.0 mph 20.0 mph 94 % 0.01 in 0 W/m2
21:30 54.1 °F 52.5 °F 29.35 in SSE 10.0 mph 20.0 mph 94 % 0.01 in 0 W/m2
21:35 54.1 °F 52.5 °F 29.35 in SSE 10.0 mph 20.0 mph 94 % 0.01 in 0 W/m2
21:40 54.0 °F 52.6 °F 29.35 in SSE 10.0 mph 20.0 mph 95 % 0.01 in 0 W/m2
21:45 54.1 °F 52.7 °F 29.34 in SE 9.0 mph 18.0 mph 95 % 0.01 in 0 W/m2
21:50 54.0 °F 52.6 °F 29.34 in SE 10.0 mph 19.0 mph 95 % 0.01 in 0 W/m2
21:55 54.0 °F 52.6 °F 29.34 in SE 11.0 mph 19.0 mph 95 % 0.01 in 0 W/m2
22:01 54.0 °F 52.6 °F 29.33 in SE 11.0 mph 21.0 mph 95 % 0.01 in 0 W/m2
22:06 54.0 °F 52.6 °F 29.33 in SE 11.0 mph 21.0 mph 95 % 0.01 in 0 W/m2
22:11 54.0 °F 52.6 °F 29.33 in SE 10.0 mph 21.0 mph 95 % 0.01 in 0 W/m2
22:16 54.1 °F 52.7 °F 29.32 in SE 9.0 mph 19.0 mph 95 % 0.00 in 0 W/m2
22:21 54.1 °F 52.7 °F 29.32 in SE 10.0 mph 20.0 mph 95 % 0.00 in 0 W/m2
22:26 54.1 °F 52.7 °F 29.32 in SE 12.0 mph 20.0 mph 95 % 0.00 in 0 W/m2
22:31 54.1 °F 52.7 °F 29.32 in SE 11.0 mph 19.0 mph 95 % 0.00 in 0 W/m2
22:36 54.1 °F 52.7 °F 29.31 in SSE 10.0 mph 16.0 mph 95 % 0.00 in 0 W/m2
22:41 54.1 °F 52.7 °F 29.31 in SSE 9.0 mph 16.0 mph 95 % 0.01 in 0 W/m2
22:46 54.1 °F 52.7 °F 29.30 in SSE 9.0 mph 21.0 mph 95 % 0.01 in 0 W/m2
22:51 54.1 °F 52.7 °F 29.30 in SSE 10.0 mph 21.0 mph 95 % 0.01 in 0 W/m2
22:56 54.1 °F 52.7 °F 29.30 in SSE 11.0 mph 20.0 mph 95 % 0.01 in 0 W/m2
23:01 54.1 °F 52.7 °F 29.30 in SSE 11.0 mph 20.0 mph 95 % 0.01 in 0 W/m2
23:06 54.1 °F 52.7 °F 29.29 in SSE 11.0 mph 19.0 mph 95 % 0.01 in 0 W/m2
23:11 54.0 °F 52.6 °F 29.29 in SSE 10.0 mph 20.0 mph 95 % 0.02 in 0 W/m2
23:16 54.1 °F 52.7 °F 29.29 in SSE 11.0 mph 20.0 mph 95 % 0.02 in 0 W/m2
23:21 54.1 °F 52.7 °F 29.28 in SSE 9.0 mph 20.0 mph 95 % 0.02 in 0 W/m2
23:26 54.1 °F 52.7 °F 29.28 in SSE 9.0 mph 15.0 mph 95 % 0.02 in 0 W/m2
23:31 54.1 °F 52.7 °F 29.28 in SSE 10.0 mph 16.0 mph 95 % 0.02 in 0 W/m2
23:36 54.1 °F 52.7 °F 29.27 in SSE 11.0 mph 16.0 mph 95 % 0.02 in 0 W/m2
23:41 54.1 °F 52.7 °F 29.27 in SE 10.0 mph 18.0 mph 95 % 0.01 in 0 W/m2
23:46 54.1 °F 52.7 °F 29.27 in SSE 9.0 mph 19.0 mph 95 % 0.01 in 0 W/m2
23:51 54.1 °F 52.7 °F 29.26 in SSE 9.0 mph 19.0 mph 95 % 0.01 in 0 W/m2
Delerius-Weather
Compliments of Weather Underground - 2.25 mb

Data updates at regular intervals.